Weather History for Pratt, KS

Change the Weather History Date:

Wednesday, April 25, 2012

  Actual Average (KP28) Record (KP28)
Temperature  
Mean Temperature 74 °F 59 °F  
Max Temperature 93 °F 72 °F 96 °F (2012)
Min Temperature 55 °F 47 °F 29 °F (1910)
Degree Days  
Heating Degree Days 0 7  
Month to date heating degree days 260  
Since 1 July heating degree days 4357  
Cooling Degree Days 9 1  
Month to date cooling degree days 17  
Year to date cooling degree days 19  
Growing Degree Days 24 (Base 50)    
Moisture  
Dew Point 45 °F    
Average Humidity 36    
Maximum Humidity 72    
Minimum Humidity 15    
Precipitation  
Precipitation 0.00 in 0.09 in 1.55 in (1965)
Month to date precipitation 1.93  
Year to date precipitation 5.94  
Snow  
Snow 0.00 in 0.00 in - ()
Month to date snowfall 0.0  
Since 1 July snowfall 8.5  
Snow Depth -    
Sea Level Pressure  
Sea Level Pressure 29.71 in    
Wind  
Wind Speed 12 mph (North)    
Max Wind Speed 23 mph    
Max Gust Speed 26 mph    
Visibility 10 miles    
Events      
T = Trace of Precipitation, MM = Missing Value Source: NWS Daily Summary

Daily Weather History Graph

Daily Weather History Graph

Search for Another Location

Airport:

Trip Planner

Search our weather history database for the weather conditions in past years. The results will help you decide how hot, cold, wet, or windy it might be!

Date:

Astronomy

Apr. 25, 2012 Rise Set
Actual Time 6:45 AM CDT 8:20 PM CDT
Civil Twilight 6:18 AM CDT 8:48 PM CDT
Nautical Twilight 5:44 AM CDT 9:21 PM CDT
Astronomical Twilight 5:09 AM CDT 9:57 PM CDT
Moon 9:35 AM CDT (4/25) No Moon Set
Length of Visible Light 14h 29m
Length of Day
13h 34m
Waxing Crescent, 17% of the Moon is Illuminated
Apr 25
Waxing Crescent
Apr 29
First Quarter
May 5
Full
May 12
Last Quarter
May 20
New

Hourly Weather History & Observations

Time (CDT) Temp. Dew Point Humidity Pressure Visibility Wind Dir Wind Speed Gust Speed Precip Events Conditions
12:15 AM 71.6 °F 44.6 °F 38% 29.70 in 10.0 mi West 16.1 mph 20.7 mph N/A   Clear
12:35 AM 75.2 °F 42.8 °F 31% 29.66 in 10.0 mi SSW 9.2 mph 18.4 mph N/A   Clear
12:55 AM 71.6 °F 46.4 °F 41% 29.66 in 10.0 mi SW 9.2 mph - N/A   Clear
1:15 AM 77.0 °F 41.0 °F 28% 29.66 in 10.0 mi SW 19.6 mph - N/A   Scattered Clouds
1:35 AM 77.0 °F 42.8 °F 29% 29.65 in 10.0 mi SW 23.0 mph 26.5 mph N/A   Clear
2:15 AM 73.4 °F 42.8 °F 33% 29.65 in 10.0 mi SW 20.7 mph - N/A   Clear
2:35 AM 73.4 °F 42.8 °F 33% 29.64 in 10.0 mi SSW 18.4 mph - N/A   Clear
2:55 AM 71.6 °F 42.8 °F 35% 29.63 in 10.0 mi SSW 16.1 mph - N/A   Clear
3:15 AM 69.8 °F 44.6 °F 40% 29.63 in 10.0 mi SW 13.8 mph - N/A   Clear
3:55 AM 62.6 °F 46.4 °F 55% 29.62 in 10.0 mi WSW 8.1 mph - N/A   Clear
4:15 AM 60.8 °F 46.4 °F 59% 29.62 in 10.0 mi WSW 8.1 mph - N/A   Clear
4:35 AM 60.8 °F 46.4 °F 59% 29.62 in 10.0 mi WSW 10.4 mph - N/A   Clear
4:55 AM 60.8 °F 46.4 °F 59% 29.63 in 10.0 mi WSW 9.2 mph - N/A   Clear
5:15 AM 60.8 °F 46.4 °F 59% 29.64 in 10.0 mi West 8.1 mph - N/A   Clear
5:35 AM 59.0 °F 46.4 °F 63% 29.64 in 10.0 mi WNW 6.9 mph - N/A   Clear
5:55 AM 55.4 °F 46.4 °F 72% 29.64 in 10.0 mi West 6.9 mph - N/A   Clear
6:15 AM 55.4 °F 46.4 °F 72% 29.64 in 10.0 mi West 9.2 mph - N/A   Clear
6:35 AM 55.4 °F 46.4 °F 72% 29.64 in 10.0 mi West 10.4 mph - N/A   Clear
7:15 AM 55.4 °F 46.4 °F 72% 29.65 in 10.0 mi WNW 8.1 mph - N/A   Clear
7:35 AM 55.4 °F 46.4 °F 72% 29.66 in 10.0 mi NW 10.4 mph - N/A   Clear
8:35 AM 62.6 °F 46.4 °F 55% 29.67 in 10.0 mi NW 9.2 mph - N/A   Clear
8:55 AM 66.2 °F 46.4 °F 49% 29.68 in 10.0 mi NW 10.4 mph - N/A   Clear
9:15 AM 68.0 °F 46.4 °F 46% 29.69 in 10.0 mi NW 9.2 mph - N/A   Clear
9:55 AM 77.0 °F 44.6 °F 32% 29.71 in 10.0 mi North 19.6 mph 24.2 mph N/A   Clear
10:15 AM 78.8 °F 44.6 °F 30% 29.71 in 10.0 mi North 18.4 mph - N/A   Clear
10:35 AM 80.6 °F 42.8 °F 26% 29.71 in 10.0 mi NNW 19.6 mph 23.0 mph N/A   Clear
10:55 AM 84.2 °F 42.8 °F 23% 29.71 in 10.0 mi North 17.3 mph 21.9 mph N/A   Clear
11:15 AM 86.0 °F 42.8 °F 22% 29.71 in 10.0 mi North 16.1 mph - N/A   Clear
11:35 AM 87.8 °F 41.0 °F 19% 29.71 in 10.0 mi North 16.1 mph - N/A   Clear
11:55 AM 89.6 °F 41.0 °F 18% 29.71 in 10.0 mi North 15.0 mph 19.6 mph N/A   Clear
12:15 PM 89.6 °F 41.0 °F 18% 29.72 in 10.0 mi North 15.0 mph 20.7 mph N/A   Clear
12:35 PM 91.4 °F 39.2 °F 16% 29.71 in 10.0 mi North 12.7 mph 18.4 mph N/A   Clear
12:55 PM 91.4 °F 37.4 °F 15% 29.72 in 10.0 mi North 16.1 mph - N/A   Clear
1:35 PM 91.4 °F 37.4 °F 15% 29.71 in 10.0 mi NE 12.7 mph 20.7 mph N/A   Clear
1:55 PM 91.4 °F 39.2 °F 16% 29.71 in 10.0 mi NNE 12.7 mph - N/A   Clear
2:15 PM 91.4 °F 41.0 °F 17% 29.71 in 10.0 mi North 12.7 mph - N/A   Clear
2:35 PM 91.4 °F 42.8 °F 18% 29.72 in 10.0 mi NNE 10.4 mph - N/A   Clear
2:55 PM 91.4 °F 41.0 °F 17% 29.72 in 10.0 mi NNE 6.9 mph - N/A   Clear
3:15 PM 89.6 °F 42.8 °F 20% 29.73 in 10.0 mi North 10.4 mph - N/A   Clear
3:35 PM 89.6 °F 42.8 °F 20% 29.73 in 10.0 mi NNE 8.1 mph - N/A   Clear
4:15 PM 93.2 °F 41.0 °F 16% 29.72 in 10.0 mi NNE 6.9 mph - N/A   Clear
4:35 PM 93.2 °F 42.8 °F 17% 29.72 in 10.0 mi NE 8.1 mph - N/A   Clear
4:55 PM 91.4 °F 42.8 °F 18% 29.72 in 10.0 mi NE 6.9 mph 17.3 mph N/A   Clear
5:15 PM 93.2 °F 44.6 °F 19% 29.72 in 10.0 mi NE 11.5 mph - N/A   Clear
5:35 PM 91.4 °F 44.6 °F 20% 29.73 in 10.0 mi NE 9.2 mph - N/A   Clear
5:55 PM 91.4 °F 42.8 °F 18% 29.73 in 10.0 mi NE 9.2 mph - N/A   Clear
6:15 PM 91.4 °F 46.4 °F 21% 29.74 in 10.0 mi NNE 10.4 mph - N/A   Clear
6:35 PM 89.6 °F 46.4 °F 22% 29.75 in 10.0 mi NE 11.5 mph - N/A   Clear
6:55 PM 89.6 °F 46.4 °F 22% 29.75 in 10.0 mi NE 10.4 mph - N/A   Clear
7:15 PM 87.8 °F 46.4 °F 24% 29.76 in 10.0 mi NE 9.2 mph - N/A   Clear
7:35 PM 86.0 °F 50.0 °F 29% 29.77 in 10.0 mi NE 9.2 mph - N/A   Clear
7:55 PM 86.0 °F 50.0 °F 29% 29.77 in 10.0 mi NE 8.1 mph - N/A   Clear
8:15 PM 82.4 °F 50.0 °F 32% 29.78 in 10.0 mi NE 8.1 mph - N/A   Clear
8:35 PM 78.8 °F 51.8 °F 39% 29.78 in 10.0 mi NE 8.1 mph - N/A   Clear
8:55 PM 78.8 °F 51.8 °F 39% 29.79 in 10.0 mi NE 5.8 mph - N/A   Clear
9:15 PM 77.0 °F 51.8 °F 41% 29.80 in 10.0 mi NE 8.1 mph - N/A   Clear
9:35 PM 73.4 °F 51.8 °F 47% 29.81 in 10.0 mi NE 8.1 mph - N/A   Clear
9:55 PM 73.4 °F 51.8 °F 47% 29.81 in 10.0 mi NE 6.9 mph - N/A   Clear
10:35 PM 73.4 °F 51.8 °F 47% 29.83 in 10.0 mi NE 5.8 mph - N/A   Clear
10:55 PM 73.4 °F 51.8 °F 47% 29.84 in 10.0 mi ENE 4.6 mph - N/A   Clear
11:15 PM 71.6 °F 51.8 °F 50% 29.85 in 10.0 mi NE 5.8 mph - N/A   Clear
11:35 PM 71.6 °F 51.8 °F 50% 29.86 in 10.0 mi NE 3.5 mph - N/A   Clear
11:55 PM 68.0 °F 51.8 °F 56% 29.86 in 10.0 mi NNE 9.2 mph - N/A   Clear